Location: B?ezina
(49.8085°N, 13.6013°E)
Time: 16:12:25
(UTC+00:00)

Ariane Rocket - Pass Details

Date: 19 May 2025
Orbit: 755 x 764 km, 98.5° (Epoch: 16 June)

Event Time Altitude Azimuth Distance (km) Brightness Sun altitude
Exits shadow 21:17:01 15° 202° (SSW) 1,974 4.7 -16.4°
Maximum altitude 21:20:45 37° 263° (W) 1,185 4.1 -16.7°
Drops below altitude 10° 21:25:27 10° 331° (NNW) 2,310 6.8 -17.0°
Sets 21:27:57 0° 340° (NNW) 3,242 8.0 -17.2°
